Temperature
26 23 22 22 23 23 23 23 22 22 21 20 19 18 17 17 17 17 18 18 18 18 18 18 18 18 18 18 18 17 17 17 17 16 16 15 15 15 14 14 14 14 14 14
23 23 24 25 25 24 24 23 21 21 21 20 18 17 17 17 16 17 17 18 18 18 18 18 18 18 18 18 18 17 17 17 16 16 15 15 14 14 14 14 13 13 13 13
24 24 26 25 25 24 23 22 21 20 19 19 18 17 16 17 16 17 18 18 19 19 19 19 19 18 18 18 18 18 17 17 16 15 15 14 14 13 13 13 13 13 13 13
24 25 26 25 24 24 22 23 23 21 18 16 17 16 16 16 16 17 18 18 19 19 19 19 19 19 19 18 18 17 17 16 16 15 14 14 13 12 12 12 12 12 12 13
23 25 25 25 25 25 23 24 23 20 17 16 16 16 16 16 16 17 18 19 19 20 20 20 19 19 19 18 18 17 16 16 15 14 14 13 12 12 11 11 11 12 12 12
24 25 25 26 26 26 23 22 20 17 16 16 16 17 17 16 16 17 18 19 20 20 20 20 19 19 18 18 17 17 16 15 15 14 13 12 12 11 11 11 11 11 11 12
24 25 26 26 25 24 23 20 19 19 17 17 16 17 17 17 18 18 18 19 20 20 20 20 19 19 18 18 17 16 15 15 14 13 13 12 11 11 11 10 10 10 10 10
23 23 25 27 26 25 24 21 20 20 18 16 16 17 17 18 19 19 19 20 20 20 20 19 19 18 18 17 16 16 15 14 13 13 12 11 11 11 10 10 10 10 10 10
22 23 26 27 27 26 25 22 21 18 17 16 17 17 18 19 20 20 20 20 20 20 19 19 19 18 17 17 16 15 14 13 13 12 12 11 11 10 10 10 10 9 9 9
23 24 24 26 26 25 24 22 19 18 18 18 18 18 17 19 19 19 19 19 19 19 19 19 18 18 17 16 15 15 14 13 12 12 11 11 11 10 10 9 9 9 9 9
23 22 23 24 25 25 24 23 19 17 17 17 18 18 19 19 18 18 18 20 20 19 19 19 18 18 17 16 15 14 13 13 12 12 11 11 10 10 10 9 9 9 9 9
22 19 21 23 24 25 24 23 20 19 20 17 17 18 20 18 18 19 19 20 20 19 19 19 18 17 16 15 14 14 13 12 12 12 11 11 10 10 10 9 9 9 8 8
22 19 20 20 21 23 24 24 21 18 17 17 17 19 19 19 19 20 20 20 19 19 19 18 17 16 16 15 14 13 13 12 12 12 11 11 10 10 10 9 9 9 8 8
22 19 20 21 21 22 24 25 23 19 18 19 19 19 19 18 18 18 20 20 19 19 18 17 17 16 15 14 14 13 13 12 12 11 11 11 10 10 10 9 9 8 8 8
22 22 23 23 23 24 25 25 24 22 20 19 19 18 18 17 17 19 20 19 19 18 17 17 16 15 15 14 13 13 12 12 12 11 11 11 10 10 9 9 9 8 8 8
20 22 23 22 24 24 24 25 25 24 23 21 19 19 18 19 20 20 20 19 18 18 17 17 16 15 14 14 13 13 12 12 11 11 11 10 10 9 9 9 8 8 8 7
20 21 21 20 21 22 22 24 24 24 23 21 20 19 19 18 18 19 19 19 18 18 17 17 16 15 14 13 13 12 12 11 11 11 10 10 9 9 9 8 8 8 8 7
20 19 18 19 20 22 21 23 24 23 22 21 19 19 19 19 19 19 20 19 19 18 17 17 16 15 14 13 13 12 12 11 11 10 10 9 9 9 8 8 8 8 7 7
20 19 19 18 20 21 22 23 23 22 21 20 19 19 19 19 18 18 19 19 19 18 17 16 15 15 14 13 12 12 11 11 10 10 9 9 8 8 8 8 7 7 7 7
20 19 19 19 20 20 21 23 24 21 20 21 20 19 20 18 16 17 20 19 18 18 17 16 15 15 14 13 12 11 11 10 10 9 9 8 8 8 7 7 7 7 7 8
21 20 19 19 19 20 22 24 24 21 20 22 22 22 22 19 19 21 20 19 18 18 17 16 15 15 14 13 12 11 10 10 9 9 9 8 8 7 7 7 7 7 7 8
21 20 19 18 19 20 22 24 22 21 24 24 23 23 23 22 22 21 20 19 18 18 17 16 15 14 13 12 12 11 10 10 9 9 8 8 8 7 7 7 7 7 7 8
20 20 18 19 19 22 25 25 26 26 24 24 24 23 23 22 22 21 20 19 19 18 17 16 15 14 13 12 11 11 10 9 9 9 8 8 8 7 7 7 7 7 8 8
20 21 20 20 20 22 25 26 26 25 25 25 24 24 23 23 22 21 20 19 19 18 17 16 15 14 13 12 11 10 10 9 9 8 8 8 7 7 7 7 7 7 8 8
20 21 20 19 20 23 25 26 26 26 25 25 24 24 23 23 22 21 20 20 19 18 17 16 15 14 13 12 11 10 10 9 9 8 8 7 7 7 7 7 7 8 8 8
19 21 20 19 22 20 24 26 26 25 25 25 24 24 23 23 22 21 21 20 19 18 17 16 15 14 13 12 11 10 10 9 9 8 8 7 7 7 7 7 8 9 8 8
Wind_Speed
1 2 4 8 6 5 1 1 1 2 5 7 7 5 4 5 3 1 1 2 4 6 7 7 7 7 6 5 5 5 5 4 3 3 3 3 3 4 5 5 8 8 7 6
4 5 10 6 3 1 1 1 1 1 4 5 6 4 2 2 3 5 5 6 7 6 6 7 8 7 6 6 6 6 6 5 4 3 2 1 1 2 2 4 5 8 9 9
5 6 5 3 4 2 1 4 5 4 4 5 4 1 3 3 2 5 7 8 8 10 9 9 8 8 7 7 8 7 6 6 4 3 2 2 3 3 4 5 5 6 10 10
3 4 3 4 5 3 3 7 10 10 6 1 1 1 4 3 2 5 7 7 9 9 9 9 8 8 7 7 6 6 6 5 4 3 2 1 0 2 3 3 4 7 8 8
5 4 3 3 5 4 4 5 8 9 6 4 2 2 4 2 4 7 7 8 9 10 10 9 8 7 6 5 5 5 5 4 3 2 2 1 1 3 3 4 5 6 6 7
5 3 3 4 3 6 9 7 8 5 4 3 1 1 3 4 6 6 7 8 9 9 8 6 4 5 4 4 5 5 4 3 2 2 1 2 3 4 4 5 5 5 5 6
7 5 3 2 3 4 5 6 3 4 4 1 2 1 6 7 7 8 9 8 8 6 5 5 6 6 5 5 4 4 4 2 2 2 2 3 3 3 3 3 4 4 4 4
3 7 5 2 2 3 3 8 6 3 3 1 2 3 7 7 7 7 8 7 4 4 6 7 7 7 6 6 4 3 3 2 3 3 3 3 2 2 3 4 4 5 4 5
3 4 5 3 2 3 4 2 6 7 4 3 2 4 7 5 4 5 5 4 5 7 8 7 7 6 5 5 4 4 3 2 3 3 3 3 3 3 4 5 5 5 5 5
4 1 6 4 6 6 6 5 6 6 4 2 2 3 5 6 7 5 6 7 7 7 7 7 6 5 4 4 4 4 4 4 4 4 4 4 4 5 5 5 6 6 6 6
3 3 6 6 2 2 4 4 6 4 6 6 4 5 6 10 9 9 9 9 10 9 8 7 6 5 5 4 4 3 4 4 4 5 5 5 5 6 6 6 7 7 7 7
3 5 2 5 5 2 3 4 6 4 0 4 5 5 4 9 9 10 10 9 9 9 8 7 6 5 4 4 4 5 5 5 6 6 5 6 6 6 6 7 8 8 8 8
5 6 4 9 10 7 1 3 6 7 5 4 5 4 2 7 8 9 10 9 9 9 7 5 4 4 5 5 6 6 6 6 6 6 5 6 6 7 7 8 8 8 8 8
6 5 5 5 8 7 5 2 4 7 5 4 7 8 6 8 9 9 9 10 9 8 7 6 4 5 5 6 6 7 7 7 6 5 5 6 7 7 8 8 8 8 8 8
5 3 3 4 6 5 6 5 2 5 8 8 8 10 11 11 11 11 10 9 8 7 6 6 4 4 5 6 7 7 7 6 5 5 6 7 7 7 7 7 7 8 8 8
3 3 2 6 7 9 7 5 1 4 5 7 9 6 9 8 7 7 8 9 8 7 6 5 4 4 5 6 7 6 6 6 5 6 7 7 6 6 6 7 8 8 8 8
4 5 2 4 8 6 6 3 2 4 4 8 7 8 7 7 8 9 8 8 8 7 6 6 5 5 6 6 6 6 6 5 5 6 7 6 6 6 7 8 8 8 9 9
8 6 4 1 5 3 9 5 5 7 4 7 9 8 9 8 7 6 8 9 9 8 7 6 5 5 5 4 5 5 5 5 6 6 5 5 6 7 8 8 9 9 8 9
8 8 5 3 2 6 8 5 5 7 2 5 10 9 8 8 5 2 8 9 9 9 7 6 5 5 4 5 5 4 5 5 5 5 6 6 7 8 9 9 10 9 9 10
5 6 6 4 3 6 9 5 6 9 1 6 9 10 10 9 3 6 9 9 9 8 6 5 4 3 3 5 4 3 5 5 6 6 7 7 7 8 9 10 10 9 9 10
2 2 3 5 6 8 8 5 5 3 8 9 10 10 10 10 9 7 9 9 9 8 7 6 4 2 4 4 2 3 5 5 6 6 7 7 8 9 9 9 8 9 10 10
4 3 4 3 2 7 7 4 6 10 7 9 11 11 11 11 10 9 11 11 10 8 7 6 3 3 4 3 2 3 5 6 6 6 7 8 9 9 10 10 10 9 9 10
3 6 6 7 8 9 8 10 10 9 9 10 11 11 12 11 11 11 11 11 10 9 7 5 4 3 3 3 2 4 5 5 5 6 8 9 10 9 9 9 10 10 9 8
6 2 2 5 9 9 9 9 7 9 11 12 13 12 12 12 12 12 11 10 9 8 7 5 4 3 4 4 4 5 5 4 5 7 8 8 9 10 10 8 7 8 9 8
8 5 4 6 9 8 7 8 10 10 10 10 11 12 14 13 12 12 11 11 10 8 6 6 5 5 5 5 4 4 4 3 5 7 7 8 8 9 10 9 8 9 9 10
6 5 5 8 9 7 8 9 9 9 10 11 11 11 10 12 13 12 11 10 10 9 7 6 6 5 5 5 4 4 4 3 5 6 7 7 8 8 8 10 11 12 13 15
Wind_Direction
237 111 245 236 205 196 119 85 49 318 36 49 56 62 35 15 21 293 236 168 173 177 181 177 180 175 167 161 148 141 130 117 97 70 54 37 358 343 344 347 352 350 336 321
7 281 254 245 244 270 102 120 192 21 69 75 72 52 0 345 279 246 224 202 193 193 190 193 196 192 187 180 171 161 152 142 131 130 138 160 265 308 316 327 339 346 337 325
200 248 274 306 307 307 262 186 185 164 87 60 90 58 285 261 242 234 222 208 196 190 194 208 203 195 188 183 178 167 163 151 145 132 90 24 8 349 345 336 334 331 331 327
253 261 308 310 287 195 236 214 176 159 139 121 121 183 266 259 260 228 226 211 203 203 203 208 200 187 185 186 174 159 157 156 155 138 119 128 304 294 282 291 306 318 328 333
262 249 256 248 245 172 193 169 146 141 128 102 27 140 272 234 226 226 223 216 213 213 206 205 198 185 174 163 150 149 149 162 175 171 170 182 261 260 282 309 327 330 329 334
259 247 216 220 216 145 134 98 81 76 87 73 273 155 268 229 219 223 226 222 221 218 209 196 169 139 124 117 127 142 148 179 208 211 218 224 264 286 314 327 328 324 321 325
333 327 303 163 82 92 121 109 58 18 29 333 288 311 261 247 231 222 225 229 230 215 175 141 127 119 124 129 142 153 158 197 236 243 265 270 275 283 294 292 294 305 310 311
340 319 311 316 152 164 161 134 146 187 184 226 297 266 266 268 251 232 230 228 214 147 127 130 139 142 149 155 156 157 167 211 249 261 277 287 266 242 264 271 275 283 280 278
206 272 305 314 34 81 53 44 152 125 97 100 256 278 297 283 257 222 205 175 146 139 138 143 149 153 160 160 164 170 177 218 254 254 255 257 246 258 266 275 277 281 279 283
187 253 319 330 39 28 121 129 73 85 115 106 229 234 226 224 216 196 164 150 153 153 151 151 161 170 173 172 174 178 186 212 234 241 248 245 251 260 263 269 277 277 278 281
76 108 322 355 35 349 22 45 91 102 134 138 195 255 225 198 185 164 165 167 169 168 168 175 181 185 183 181 186 199 220 233 243 243 242 252 260 263 263 262 263 262 265 269
50 107 336 300 293 241 172 170 139 126 82 133 148 259 276 164 162 156 165 175 177 175 180 185 187 196 203 209 219 228 238 245 244 238 237 244 254 261 263 262 261 259 260 261
89 88 35 347 342 344 340 187 154 130 115 125 138 235 245 143 152 165 170 180 183 185 187 192 202 222 232 233 238 243 247 250 247 240 239 250 261 264 264 264 264 263 263 264
111 104 149 197 244 273 296 297 154 124 135 165 173 174 190 172 176 189 188 189 190 191 191 197 221 245 251 248 248 248 254 254 252 246 248 259 265 264 265 268 270 270 268 267
100 135 238 258 287 320 308 306 170 151 167 161 177 173 200 197 193 196 194 188 178 184 190 196 213 238 255 261 262 259 259 262 256 253 258 263 266 269 273 277 278 278 276 277
102 156 357 323 317 327 317 312 116 138 132 130 135 183 213 200 189 188 181 169 171 180 186 192 208 242 265 270 271 268 263 263 255 256 263 269 277 282 285 285 284 284 280 276
148 134 109 291 313 354 324 283 131 127 142 149 167 192 187 183 189 185 174 163 171 184 192 206 228 248 261 268 267 264 261 265 269 269 274 283 290 294 293 298 298 289 284 279
152 136 139 219 12 313 258 260 147 121 97 137 142 165 175 175 171 172 170 170 186 194 201 221 238 253 262 266 269 268 269 277 283 286 290 292 295 296 296 297 294 289 282 280
157 147 144 142 217 274 289 278 159 123 71 151 145 158 160 150 111 239 208 190 193 198 203 216 226 232 256 276 277 280 290 294 297 297 295 291 293 297 299 299 296 291 287 284
108 117 137 160 196 248 256 256 136 101 149 217 165 166 166 148 148 249 224 200 195 197 200 207 218 231 277 285 288 294 297 301 298 295 293 292 293 296 297 294 292 290 285 283
29 50 168 205 226 257 244 218 110 125 232 213 187 181 175 180 202 212 196 194 194 192 194 185 186 234 268 278 289 297 298 291 285 291 297 299 298 297 293 291 291 291 290 289
201 194 226 182 210 262 241 197 180 215 210 195 193 189 186 199 206 193 184 188 185 183 185 181 190 244 269 274 274 290 287 278 287 298 303 303 302 303 308 299 296 292 289 290
209 195 195 189 215 234 225 211 216 186 187 199 197 198 186 186 192 187 185 183 184 184 189 191 194 237 273 270 237 262 272 280 296 307 308 305 305 302 297 295 296 299 294 288
288 251 198 265 267 258 249 243 230 197 199 204 197 192 181 186 189 184 180 181 183 186 190 189 191 230 263 259 247 244 265 280 300 306 305 306 307 306 304 299 291 291 291 290
257 292 306 286 285 302 290 252 234 223 215 209 205 196 192 185 184 180 180 183 185 188 191 183 191 218 244 249 250 253 259 287 303 302 302 306 303 303 305 302 294 288 280 272
244 239 230 250 251 228 251 257 245 230 226 216 206 209 203 186 182 177 180 182 182 186 183 183 194 214 238 241 241 249 251 268 296 303 305 304 304 304 303 305 308 296 284 283
Height
1505 1512 1517 1513 1512 1513 1515 1519 1523 1521 1519 1522 1528 1531 1532 1533 1534 1536 1535 1535 1535 1535 1534 1533 1533 1533 1533 1533 1532 1531 1530 1529 1528 1526 1524 1522 1520 1518 1516 1514 1512 1511 1509 1508
1510 1513 1505 1503 1505 1508 1512 1519 1522 1521 1519 1524 1531 1535 1532 1533 1534 1536 1535 1534 1534 1534 1534 1533 1532 1532 1532 1531 1530 1529 1528 1526 1525 1523 1521 1519 1517 1515 1513 1511 1509 1507 1506 1504
1510 1505 1498 1501 1504 1508 1511 1517 1520 1525 1526 1528 1533 1540 1537 1532 1532 1534 1533 1532 1533 1532 1531 1531 1531 1530 1530 1529 1528 1527 1525 1524 1522 1520 1518 1516 1514 1511 1509 1506 1504 1503 1501 1500
1503 1497 1497 1500 1502 1503 1514 1505 1510 1518 1531 1542 1539 1551 1541 1535 1533 1532 1531 1531 1531 1530 1529 1529 1528 1528 1528 1528 1527 1525 1523 1522 1520 1518 1516 1513 1510 1507 1505 1502 1500 1499 1497 1496
1504 1497 1497 1501 1498 1498 1506 1502 1508 1518 1532 1543 1544 1548 1544 1536 1534 1530 1528 1527 1527 1527 1527 1526 1527 1527 1527 1526 1525 1523 1521 1520 1518 1516 1513 1510 1507 1505 1502 1500 1497 1496 1494 1493
1498 1493 1493 1493 1491 1492 1500 1509 1518 1527 1536 1549 1546 1546 1543 1535 1529 1526 1524 1524 1524 1525 1525 1525 1526 1526 1526 1525 1523 1522 1520 1518 1516 1513 1511 1508 1505 1502 1499 1497 1495 1493 1491 1489
1503 1495 1490 1489 1495 1498 1502 1519 1537 1542 1551 1552 1543 1543 1539 1524 1521 1520 1520 1521 1522 1523 1523 1524 1525 1525 1524 1523 1521 1520 1518 1516 1513 1511 1508 1505 1502 1499 1497 1494 1491 1489 1486 1484
1517 1515 1494 1488 1491 1497 1500 1511 1533 1542 1550 1552 1545 1545 1532 1517 1515 1516 1517 1519 1521 1522 1523 1523 1523 1523 1522 1521 1519 1517 1515 1513 1511 1508 1505 1503 1500 1497 1494 1491 1488 1485 1483 1481
1518 1514 1493 1487 1486 1488 1498 1507 1509 1528 1541 1553 1547 1539 1526 1516 1515 1515 1516 1518 1519 1521 1521 1522 1521 1520 1519 1518 1516 1514 1512 1510 1508 1505 1502 1499 1497 1494 1491 1488 1485 1482 1479 1477
1504 1511 1499 1490 1488 1489 1493 1499 1514 1529 1546 1552 1545 1540 1536 1521 1517 1515 1516 1517 1519 1520 1520 1520 1519 1518 1517 1515 1513 1511 1509 1507 1504 1502 1499 1496 1493 1490 1487 1484 1481 1479 1476 1474
1500 1511 1507 1498 1498 1500 1498 1501 1513 1527 1532 1547 1552 1542 1515 1514 1513 1514 1515 1516 1517 1518 1518 1517 1516 1515 1514 1512 1510 1508 1506 1503 1501 1498 1495 1492 1489 1486 1483 1480 1477 1475 1472 1470
1500 1512 1518 1506 1495 1490 1493 1499 1510 1526 1528 1534 1543 1539 1508 1509 1510 1511 1513 1515 1515 1515 1515 1514 1514 1512 1511 1509 1506 1504 1502 1499 1497 1494 1491 1488 1485 1482 1479 1476 1473 1470 1468 1465
1499 1515 1529 1525 1514 1499 1495 1494 1500 1513 1524 1532 1541 1533 1510 1509 1510 1510 1511 1512 1513 1513 1512 1512 1511 1509 1507 1505 1502 1500 1498 1495 1492 1490 1487 1484 1481 1477 1474 1471 1468 1465 1463 1460
1495 1512 1525 1531 1523 1506 1499 1493 1495 1507 1523 1523 1523 1522 1514 1511 1510 1510 1509 1510 1510 1510 1509 1509 1507 1506 1503 1501 1498 1496 1493 1491 1488 1485 1482 1479 1476 1472 1469 1466 1463 1460 1457 1454
1496 1508 1505 1504 1498 1495 1493 1491 1491 1498 1505 1514 1513 1515 1511 1508 1507 1506 1506 1507 1507 1507 1507 1505 1504 1502 1499 1497 1494 1492 1489 1486 1483 1480 1477 1474 1471 1467 1464 1460 1457 1453 1450 1447
1497 1504 1504 1505 1496 1494 1494 1488 1488 1491 1493 1501 1507 1510 1502 1503 1503 1503 1503 1503 1504 1504 1503 1502 1500 1498 1495 1493 1490 1487 1484 1482 1479 1475 1472 1469 1465 1462 1458 1454 1450 1447 1443 1441
1499 1504 1511 1516 1504 1500 1505 1491 1488 1490 1489 1495 1504 1503 1499 1502 1501 1500 1500 1500 1501 1500 1500 1498 1496 1494 1491 1488 1486 1483 1480 1477 1474 1470 1467 1464 1460 1456 1452 1448 1443 1440 1437 1434
1496 1503 1513 1516 1514 1518 1505 1483 1481 1487 1489 1488 1491 1494 1495 1496 1497 1497 1497 1497 1497 1496 1495 1494 1492 1490 1487 1484 1481 1478 1475 1472 1469 1465 1462 1458 1454 1450 1445 1441 1437 1434 1431 1428
1485 1497 1510 1518 1519 1513 1495 1483 1481 1488 1494 1489 1490 1492 1493 1494 1495 1496 1494 1493 1493 1492 1491 1490 1488 1486 1483 1480 1477 1474 1471 1467 1464 1460 1457 1453 1449 1444 1439 1435 1431 1428 1425 1422
1484 1490 1504 1513 1516 1519 1499 1480 1477 1485 1497 1488 1486 1487 1489 1491 1497 1493 1489 1489 1488 1488 1487 1486 1484 1482 1479 1476 1473 1469 1466 1462 1459 1455 1451 1447 1443 1438 1433 1429 1425 1422 1419 1416
1494 1497 1504 1509 1512 1502 1483 1476 1477 1496 1494 1481 1480 1481 1482 1483 1485 1484 1483 1484 1484 1484 1483 1482 1480 1477 1475 1472 1469 1465 1462 1458 1454 1450 1446 1442 1437 1433 1428 1424 1421 1418 1415 1411
1497 1501 1503 1506 1510 1502 1475 1474 1479 1479 1471 1473 1474 1475 1476 1476 1477 1478 1478 1479 1479 1479 1479 1477 1475 1473 1470 1467 1464 1461 1457 1453 1449 1445 1441 1436 1432 1428 1424 1420 1416 1413 1410 1406
1489 1490 1491 1493 1491 1474 1468 1468 1467 1466 1467 1467 1468 1469 1470 1471 1471 1472 1473 1474 1474 1474 1474 1473 1471 1469 1466 1463 1460 1456 1453 1449 1444 1440 1436 1432 1427 1423 1420 1416 1412 1409 1405 1402
1483 1476 1479 1480 1473 1466 1464 1463 1463 1462 1461 1461 1462 1463 1464 1464 1465 1466 1467 1468 1469 1469 1469 1468 1466 1464 1462 1459 1456 1452 1448 1444 1440 1436 1432 1427 1423 1419 1416 1412 1409 1405 1401 1397
1480 1476 1478 1477 1468 1463 1461 1460 1459 1458 1457 1457 1457 1457 1458 1458 1459 1460 1461 1462 1463 1463 1463 1462 1461 1459 1457 1454 1451 1448 1444 1440 1436 1432 1427 1423 1419 1416 1412 1408 1405 1401 1398 1394
1473 1473 1475 1474 1464 1462 1458 1456 1455 1454 1453 1452 1452 1452 1453 1453 1453 1454 1455 1456 1458 1458 1458 1457 1456 1454 1453 1450 1447 1444 1440 1436 1432 1427 1423 1419 1416 1412 1409 1405 1400 1397 1394 1390